星链-35560(STARLINK-35560)

导读 | 豆包AI

STARLINK-35560是美国SpaceX星链星座的卫星,于2025年10月19日发射升空,归属于美国。星链项目旨在搭建全球卫星互联网通信网络,为全球用户提供低延迟、高速率的互联网接入服务。这颗卫星加入星链星座后,进一步扩充了星座规模,提升全球覆盖能力与服务稳定性。

基本信息
目录编号:
66059
目录名称:
STARLINK-35560
国际标识:
2025-235B
轨道中心:
EARTH
卫星名称:
星链-35560
卫星全名:
星链-35560(STARLINK-35560)
卫星状态:
在轨 (已飞行218 天)
发射日期:
2025-10-19 UTC
国别 :
美国 (US)
星等 :
--
轨道信息
数据来源 国际轨道数据 AOE轨道数据
星历时间 2026-05-25T07:47:51+0800
10小时前
查看轨道信息
2026-05-24T04:00:00+0800
1天前
查看轨道信息
半长轴 6853.349km 6853.432km
偏心率 0.0001035 0.000055
轨道倾角 53.157° 53.157°
近地点辐角 75.924° 70.684°
升交点赤经 250.856° 256.237°
平近点角 284.187° 25.512°
近地点 474.502km 474.918km
远地点 475.922km 475.672km
周期 94.105分钟 94.107分钟
每日圈数 15.302013 15.301735
详细信息
固有亮度:
5
最大亮度:
2.5
卫星平台:
Starlink V1.0
覆盖范围:
全球
运营商:
太空探索技术公司
运营商所在国:
美国
制造商(研发单位):
太空探索技术公司
制造商所在国:
美国
使用方式:
暂无
卫星简介
Starlink 计划是 SpaceX 推出的全球卫星互联网项目,通过发射低轨道卫星,为全球尤其是偏远地区提供高速、低延迟的互联网服务。自 2019 年起,Starlink 已部署数千颗卫星,旨在缩小全球数字鸿沟,推动互联网普及。该项目还为军事、航空等行业提供通信支持,带来广泛经济效益。
2D轨道图
3D轨道图
轨道高度分析图
轨道倾角分析图
轨道综合分析图
查看轨道综合分析图